Showing default

GLOBALSTAR M071, 31576

Orbit data source: Space-Track

GLOBALSTAR M071, 31576 is a payload satellite owned by Globalstar (US) in LEO that was launched on Tue, 29 May 2007 UTC via a SOYUZ-FG launch vehicle from the Tyuratam Missile And Space Complex (TTMTR). Payload-class satellites include a variety of spacecraft equipped with specific instruments for various scientific and technological missions. These include communications satellites like Starlink; space stations such as the ISS; scientific satellites like the Hubble; Earth observation satellites from companies like Planet Labs, Umbra, and HawkEye 360; GPS; miniature CubeSats for education and research; and military/defense satellites.

Loading next visibility...
Identifier
31576, 2007-020F
Orbit
LEO
Last TLE update
20 hours ago
Origin
Manufacturer
SS/Loral
Mission
Non-operational Commercial Communications
Bus & Motor
LS-400, LS-400 AOCS
Mass
450 kg wet, 380 kg dry
Launch date (UTC)
2007-05-29 (18 years ago)
Launch vehicle
SOYUZ-FG
Launch site
Tyuratam Missile And Space Complex (TTMTR)
Object type
Payload
Rocket body
Debris
Shape & HBR
Box + 2 Pan, 12 m
Radar Cross Section
5.587 m², Large (>1 m²)

Expand to show TLE details & history

TLE from 20 hours ago
0 GLOBALSTAR M071
1 31576U 07020F   25128.84017653 -.00000017  00000-0  73632-3 0  9996
2 31576  52.0082 341.0843 0001402  59.2132  54.6680 12.18253262490142
Epoch: 2025-05-08T20:09Z
Definitive object data (Epoch: 2025-05-08T20:09:51.252Z)
Latitude
46.22738°
Longitude
-62.50876°
Altitude
1,604.476 km
Speed
7.073 km/s
True Right ascension
07h 07m 26s
True Declination
46° 04' 26"
Sunlit
Object was in daylight at TLE epoch
Visualization TLE readout
Latitude
-29.58195°
Longitude
15.5325°
Altitude
1,610.054 km
Speed
7.065 km/s
Apparent Right ascension
12h 26m 26s
Apparent Declination
-34° 01' 34"
Sunlit
Object is in full shadow
Visualization observer readout
Local Sidereal Time
00:36:08
Azimuth
18.958° NNE
Elevation
-83.8°
Doppler factor
1
Orbital elements
Apogee altitude
1,601.659 km
Perigee altitude
1,599.422 km
Semi-major axis
7,978.678 km
Eccentricity
0.0001402
Inclination
52.0082°
RAAN
341.0843°
Arg. of periapsis
59.2132°
True anomaly
54.68111°
Mean anomaly
54.668°
Eccentric anomaly
54.67455°
Mean motion
3.04542 °/min
BSTAR
0.00073632
Orbital period
118.21 mins
Loading maneuver chart data...
Loading SW <> Apogee altitude chart data...
Loading historical data...
Loading historical data...
Loading historical data...
Loading historical data...
Loading historical data...
Loading historical data...
Loading historical data...

GLOBALSTAR M071 Visibility forecast

Observer location: undefined°, undefined°

Span
Click to sort rows by Start time (UTC) header in descending order
Start Az.
Max El. time (UTC)
Max El. Az.
Max El.
End time (UTC)
End Az.
19 mins2025-05-09 17:21:40.322Z238.983° WSW2025-05-09 17:31:40.322Z351.415° N44.039°2025-05-09 17:40:40.322Z51.879° ENE
16 mins2025-05-09 19:29:40.322Z286.866° WNW2025-05-09 19:36:40.322Z348.023° N33.921°2025-05-09 19:45:40.322Z59.259° ENE
16 mins2025-05-09 21:35:40.322Z309.447° NW2025-05-09 21:43:40.322Z25.461° NE36.114°2025-05-09 21:51:40.322Z88.131° E
18 mins2025-05-09 23:39:40.322Z306.471° NW2025-05-09 23:48:40.322Z181.017° SSW44.678°2025-05-09 23:57:40.322Z134.755° SE
12 mins2025-05-10 01:45:40.322Z281.734° WNW2025-05-10 01:51:40.322Z237.282° WSW22.396°2025-05-10 01:57:40.322Z194.346° SSW
14 mins2025-05-10 14:58:40.322Z177.012° S2025-05-10 15:04:40.322Z128.321° SE29.055°2025-05-10 15:12:40.322Z67.005° ENE
|